Thunder Bay, Ontario

8:21 AM EDT on June 29, 2017 (GMT -0400)
Thunder Bay

Weather History for CYQT - August, 2013

Change the Weather History Date:

Wednesday, August 21, 2013

  Actual Average Record
Temperature  
Mean Temperature 73 °F -  
Max Temperature 86 °F 29 °F 86 °F (2013)
Min Temperature 57 °F 20 °F 35 °F (2004)
Cooling Degree Days 8    
Growing Degree Days 23 (Base 50)    
Moisture  
Dew Point 58 °F    
Average Humidity 67    
Maximum Humidity 100    
Minimum Humidity 22    
Precipitation  
Precipitation 0.00 in 0.02 in - ()
Sea Level Pressure  
Sea Level Pressure 29.80 in    
Wind  
Wind Speed 6 mph ()    
Max Wind Speed 22 mph    
Max Gust Speed 30 mph    
Visibility 13.6 miles    
Events Rain    
Averages and records for this station are not official NWS values.
T = Trace of Precipitation, MM = Missing Value Source: Averaged Metar Reports

Daily Weather History Graph

Daily Weather History Graph

Search for Another Location

Airport or City:

Trip Planner

Search our weather history database for the weather conditions in past years. The results will help you decide how hot, cold, wet, or windy it might be!

Date:

Astronomy

Aug. 21, 2013 Rise Set
Actual Time 6:59 AM EDT 8:59 PM EDT
Civil Twilight 6:26 AM EDT 9:33 PM EDT
Nautical Twilight 5:44 AM EDT 10:14 PM EDT
Astronomical Twilight 4:57 AM EDT 11:00 PM EDT
Moon 8:57 PM EDT (8/21) 7:47 AM EDT (8/21)
Length of Visible Light 15h 07m
Length of Day
13h 59m
Full, 100% of the Moon is Illuminated
Aug 21
Full
Aug 28
Last Quarter
Sep 5
New
Sep 12
First Quarter
Sep 19
Full

Hourly Weather History & Observations

Time (EDT) Temp. Heat Index Dew Point Humidity Pressure Visibility Wind Dir Wind Speed Gust Speed Precip Events Conditions
12:00 AM 66.2 °F - 64.4 °F 94% 29.78 in 10.0 mi ENE 5.8 mph - N/A   Clear
1:00 AM 64.4 °F - 62.6 °F 94% 29.77 in 10.0 mi ENE 4.6 mph - N/A   Clear
2:00 AM 64.4 °F - 62.6 °F 94% 29.77 in 10.0 mi ESE 4.6 mph - N/A   Scattered Clouds
3:00 AM 64.4 °F - 60.8 °F 88% 29.75 in 10.0 mi East 4.6 mph - N/A   Mostly Cloudy
4:00 AM 64.4 °F - 62.6 °F 94% 29.75 in 10.0 mi East 2.3 mph - N/A   Overcast
5:00 AM 62.6 °F - 60.8 °F 94% 29.75 in 10.0 mi Calm Calm - N/A   Mostly Cloudy
6:00 AM 62.6 °F - 60.8 °F 94% 29.71 in 10.0 mi NNE 3.5 mph - N/A   Scattered Clouds
7:00 AM 62.6 °F - 62.6 °F 100% 29.76 in 8.0 mi Variable 2.3 mph - N/A   Mostly Cloudy
7:49 AM 64.4 °F - 62.6 °F 94% 29.74 in 5.0 mi NE 3.5 mph - N/A Rain Light Rain Showers
8:00 AM 64 °F - 63 °F 95% 29.71 in 5 mi East 6.9 mph - - Rain Light Rain
8:00 AM 64.4 °F - 62.6 °F 94% 29.71 in 5.0 mi East 6.9 mph - N/A Rain Light Rain Showers
9:00 AM 64.4 °F - 64.4 °F 100% 29.73 in 8.0 mi SSE 4.6 mph - N/A   Overcast
10:00 AM 69.8 °F - 66.2 °F 88% 29.72 in 10.0 mi SW 4.6 mph - N/A   Mostly Cloudy
11:00 AM 80.6 °F 83.2 °F 68.0 °F 65% 29.74 in 20.0 mi West 8.1 mph - N/A   Scattered Clouds
12:00 PM 82.4 °F 86.3 °F 69.8 °F 66% 29.76 in 20.0 mi WNW 15.0 mph - N/A   Scattered Clouds
1:00 PM 82.4 °F 84.6 °F 66.2 °F 58% 29.79 in 20.0 mi WNW 9.2 mph 17.3 mph N/A   Partly Cloudy
2:00 PM 85 °F - 54 °F 24% 29.82 in 10 mi NW 13.8 mph - -  
2:00 PM 84.2 °F 83.0 °F 55.4 °F 37% 29.81 in 20.0 mi NNW 16.1 mph 21.9 mph N/A   Partly Cloudy
3:00 PM 86.0 °F 84.2 °F 53.6 °F 33% 29.84 in 20.0 mi NW 12.7 mph 27.6 mph N/A   Partly Cloudy
4:00 PM 84.2 °F - 50.0 °F 30% 29.85 in 20.0 mi NW 19.6 mph 29.9 mph N/A   Partly Cloudy
5:00 PM 84.2 °F - 48.2 °F 29% 29.85 in 20.0 mi NW 21.9 mph 29.9 mph N/A   Partly Cloudy
6:00 PM 82.4 °F - 48.2 °F 30% 29.86 in 20.0 mi NW 16.1 mph 28.8 mph N/A   Partly Cloudy
7:00 PM 82.4 °F - 48.2 °F 30% 29.86 in 20.0 mi WNW 13.8 mph 24.2 mph N/A   Partly Cloudy
8:00 PM 78 °F - 46 °F 22% 29.87 in 10 mi WNW 10.4 mph - -  
8:00 PM 78.8 °F - 46.4 °F 32% 29.86 in 20.0 mi NW 9.2 mph - N/A   Partly Cloudy
9:00 PM 71.6 °F - 50.0 °F 46% 29.90 in 20.0 mi WNW 6.9 mph - N/A   Partly Cloudy
10:00 PM 68.0 °F - 50.0 °F 52% 29.95 in 15.0 mi WNW 3.5 mph - N/A   Clear
11:00 PM 57.2 °F - 53.6 °F 88% 29.98 in 15.0 mi West 4.6 mph - N/A   Clear